Weather in Huangyan

China     28°42′07″N   121°14′10″E
temp.,
°C
wind,
m/s
gust,
m/s
humid.,
%
clouds,
%
prec.,
mm/h
press.,
hPa
HPBL,
m
19 april, mon
mon1923:00+12sse1169100 0.0 102222
02:00+11sse1171100 0.0 102023
05:00+9wsw0176100 0.0 102010
08:00+14sse12575 0.0 1020418
11:00+18se334646 0.0 1019955
14:00+19se4349100 0.0 10171015
17:00+16se34605 0.0 1018765
20:00+11ese11781 0.0 102029
20 april, tue
tue2023:00+10se118221 0.0 102011
02:00+10sse118352 0.0 101912
05:00+9nne00865 0.0 101911
08:00+15se126942 0.0 1020406
11:00+19se34585 0.0 10201086
14:00+21se45535 0.0 10181168
17:00+18ese356837 0.0 1018739
20:00+13se119129 0.0 102019
21 april, wed
wed2123:00+13se01945 0.0 102011
02:00+12sse00954 0.0 101811
05:00+12ese00966 0.0 101811
08:00+18sse138034 0.0 1019428
11:00+22sse356251 0.1 10181337
14:00+23se555822 0.1 10161361
17:00+20se357122 0.0 1015912
20:00+15se11914 0.0 101712
22 april, thu
thu2223:00+15sse11935 0.0 101611
02:00+14sse119414 0.0 101411
05:00+14s119379 0.0 101310
08:00+19sse127699 0.0 1014291
11:00+19se1281100 0.0 1014255
14:00+18se1192100 0.2 1011116
17:00+18e1198100 0.9 101140
20:00+18se1199100 0.9 101223
23 april, fri
fri2323:00+18sse0099100 0.1 101220
02:00+18n1199100 0.1 101017
05:00+18nnw1198100 0.1 101015
08:00+19nnw119599 0.4 1011130
11:00+24ese117643 0.4 1010728
14:00+22ne248790 3.6 1009324
17:00+22ne238772 1.6 1009284
20:00+19n1193100 2.3 101223